Total_Precipitation_Accumulation
1.05 1.23 1.39 1.53 1.70 1.82 1.91 1.95 1.98 2.04 2.14 2.20 2.13 2.15 2.22 2.24 2.17 2.16 2.14 2.04 1.93 1.82 1.74 1.70 1.65 1.59 1.62 1.59 1.63 1.71 1.77 1.85 1.83 1.43 1.19 1.18 1.28 1.31 1.34 1.26 1.23 1.20 1.16
0.94 1.04 1.24 1.32 1.45 1.60 1.71 1.74 1.77 1.81 1.87 1.94 1.98 2.01 2.03 2.06 2.06 2.03 2.01 1.98 1.93 1.81 1.75 1.74 1.68 1.66 1.75 1.76 1.76 1.75 1.73 1.70 1.70 1.54 1.28 1.19 1.20 1.15 1.13 1.16 1.16 1.16 1.07
0.90 0.94 1.08 1.21 1.28 1.34 1.44 1.53 1.60 1.67 1.74 1.80 1.81 1.90 1.93 1.90 1.94 1.94 1.90 1.90 1.90 1.84 1.78 1.77 1.74 1.74 1.80 1.80 1.77 1.74 1.68 1.63 1.61 1.58 1.41 1.26 1.26 1.20 1.19 1.17 1.15 1.14 1.06
0.83 0.90 0.93 1.09 1.20 1.24 1.25 1.31 1.37 1.43 1.52 1.57 1.62 1.66 1.73 1.77 1.82 1.89 1.94 1.91 1.90 1.87 1.83 1.78 1.72 1.70 1.68 1.65 1.62 1.59 1.58 1.60 1.62 1.63 1.53 1.39 1.32 1.31 1.33 1.37 1.33 1.21 1.15
0.75 0.85 0.90 0.97 1.06 1.16 1.23 1.26 1.32 1.35 1.39 1.45 1.51 1.53 1.55 1.61 1.70 1.79 1.89 1.96 1.96 1.94 1.90 1.81 1.69 1.63 1.56 1.53 1.51 1.47 1.49 1.60 1.67 1.70 1.62 1.49 1.36 1.35 1.39 1.32 1.34 1.31 1.25
0.73 0.77 0.85 0.93 0.97 1.02 1.10 1.20 1.24 1.33 1.39 1.42 1.51 1.57 1.59 1.64 1.86 1.95 1.92 1.93 1.94 1.88 1.79 1.66 1.57 1.54 1.48 1.51 1.53 1.51 1.56 1.70 1.81 1.77 1.63 1.43 1.22 1.14 1.22 1.37 1.48 1.54 1.47
0.78 0.77 0.80 0.88 0.98 1.03 1.05 1.12 1.25 1.34 1.49 1.57 1.60 1.69 1.71 1.73 1.82 1.72 1.76 1.75 1.78 1.77 1.69 1.56 1.47 1.36 1.33 1.22 1.34 1.45 1.47 1.56 1.61 1.56 1.48 1.26 1.16 1.12 1.33 1.58 1.58 1.50 1.27
0.83 0.85 0.86 0.88 1.00 1.11 1.12 1.15 1.25 1.34 1.48 1.62 1.67 1.70 1.70 1.69 1.70 1.58 1.58 1.45 1.44 1.48 1.49 1.47 1.41 1.36 1.29 1.26 1.29 1.36 1.25 1.20 1.21 1.13 1.13 1.14 1.15 1.17 1.36 1.62 1.65 1.63 1.40
0.85 0.88 0.92 0.95 1.06 1.17 1.17 1.19 1.23 1.29 1.37 1.43 1.50 1.53 1.48 1.47 1.49 1.40 1.41 1.31 1.29 1.25 1.23 1.28 1.34 1.29 1.38 1.48 1.42 1.36 1.19 1.05 1.07 1.15 1.21 1.21 1.29 1.30 1.37 1.70 1.89 1.95 1.75
0.96 0.99 1.02 1.10 1.22 1.26 1.25 1.23 1.19 1.18 1.19 1.17 1.18 1.17 1.15 1.14 1.23 1.20 1.21 1.13 1.15 1.13 1.13 1.17 1.31 1.29 1.41 1.51 1.38 1.33 1.23 1.08 1.03 1.02 1.01 1.01 0.99 1.06 1.25 1.43 1.85 2.19 1.91
1.05 1.06 1.08 1.14 1.22 1.25 1.22 1.16 1.13 1.08 1.07 1.03 1.01 1.00 0.97 0.98 1.04 1.05 1.08 1.03 1.03 1.06 1.08 1.06 1.10 1.34 1.43 1.44 1.33 1.18 1.21 1.20 1.06 0.98 0.97 0.94 0.92 0.96 1.03 1.12 1.42 2.03 2.23
0.99 1.00 1.01 1.03 1.08 1.15 1.17 1.13 1.08 1.07 1.05 1.03 1.02 1.05 1.02 1.01 1.00 1.01 1.07 1.10 1.12 1.06 1.01 0.95 1.02 1.28 1.27 1.25 1.18 1.20 1.33 1.25 1.06 1.06 1.04 1.02 0.97 0.94 0.95 1.02 1.13 1.33 1.60
0.88 0.93 0.92 0.89 0.91 0.98 1.04 1.07 1.08 1.08 1.06 1.04 1.04 1.06 1.05 1.01 1.05 1.12 1.09 1.16 1.19 1.05 1.01 1.13 1.17 1.15 1.09 1.08 1.16 1.21 1.18 1.14 1.22 1.29 1.18 1.02 0.93 0.91 0.94 1.02 1.08 1.15 1.24
0.73 0.81 0.85 0.85 0.85 0.86 0.89 0.98 1.04 1.08 1.07 1.03 1.03 1.07 1.04 0.97 0.98 1.03 1.05 1.09 1.14 1.11 1.12 1.18 1.13 1.05 0.99 1.02 1.11 1.13 1.09 1.14 1.30 1.37 1.26 1.07 0.98 1.00 1.06 1.15 1.28 1.31 1.43
0.65 0.70 0.73 0.80 0.85 0.89 0.90 0.98 1.07 1.10 1.19 1.20 1.10 1.05 1.07 1.05 1.05 1.17 1.19 1.15 1.20 1.24 1.22 1.08 1.00 0.97 0.96 0.94 0.96 0.97 1.03 1.12 1.23 1.21 1.24 1.22 1.15 1.15 1.17 1.26 1.47 1.60 1.65
0.69 0.70 0.73 0.81 0.85 0.87 0.89 0.94 1.04 1.09 1.14 1.16 1.17 1.14 1.08 1.12 1.16 1.21 1.25 1.31 1.35 1.35 1.24 1.10 1.01 0.94 0.90 0.87 0.88 0.92 0.97 1.05 1.15 1.25 1.28 1.29 1.30 1.29 1.29 1.32 1.52 1.70 1.69
0.74 0.76 0.77 0.81 0.87 0.86 0.86 0.89 0.95 0.99 1.02 1.04 1.08 1.12 1.11 1.12 1.11 1.15 1.25 1.30 1.27 1.24 1.19 1.11 1.00 0.95 0.92 0.87 0.88 0.91 0.94 0.96 1.10 1.28 1.37 1.39 1.41 1.39 1.40 1.46 1.56 1.65 1.60
0.72 0.77 0.81 0.84 0.89 0.89 0.86 0.87 0.88 0.91 0.94 0.96 1.00 1.07 1.09 1.11 1.15 1.18 1.24 1.25 1.22 1.13 1.05 1.04 0.99 0.96 0.96 0.98 0.99 1.02 1.02 1.02 1.11 1.24 1.32 1.38 1.47 1.54 1.54 1.52 1.56 1.60 1.55
0.69 0.73 0.77 0.83 0.88 0.92 0.91 0.89 0.89 0.87 0.88 0.91 0.93 1.03 1.12 1.13 1.17 1.22 1.18 1.09 1.04 1.00 0.96 0.94 0.93 0.95 1.00 1.05 1.08 1.11 1.16 1.20 1.25 1.37 1.39 1.42 1.49 1.62 1.58 1.48 1.46 1.43 1.38
0.65 0.75 0.80 0.84 0.86 0.88 0.91 0.93 0.93 0.89 0.88 0.87 0.88 0.97 1.08 1.16 1.14 1.09 1.05 1.00 1.00 0.99 0.95 0.94 0.93 0.93 1.01 1.08 1.12 1.17 1.23 1.26 1.30 1.39 1.44 1.48 1.53 1.62 1.61 1.45 1.35 1.34 1.26
0.66 0.70 0.78 0.81 0.85 0.88 0.90 0.94 0.94 0.92 0.91 0.89 0.88 0.96 1.16 1.15 1.04 0.95 0.94 0.98 1.01 1.02 1.00 0.98 0.97 1.00 1.06 1.12 1.18 1.20 1.25 1.27 1.32 1.43 1.49 1.47 1.48 1.48 1.37 1.34 1.30 1.30 1.31
0.68 0.69 0.70 0.75 0.83 0.89 0.95 0.96 0.97 0.94 0.90 0.89 0.89 0.93 1.06 1.01 0.98 0.97 0.97 0.95 0.95 0.96 0.97 1.04 1.05 1.03 1.15 1.32 1.45 1.49 1.38 1.30 1.31 1.42 1.45 1.36 1.31 1.31 1.30 1.33 1.31 1.32 1.34
0.69 0.71 0.72 0.76 0.85 0.93 0.97 0.96 0.98 0.96 0.93 0.90 0.91 0.91 0.91 0.93 0.96 0.99 1.00 0.99 0.96 0.94 0.94 1.00 1.07 1.04 1.06 1.25 1.47 1.76 1.84 1.61 1.48 1.56 1.66 1.52 1.37 1.34 1.38 1.39 1.32 1.31 1.28
0.69 0.73 0.76 0.79 0.85 0.90 0.93 0.94 0.95 0.96 0.95 0.93 0.91 0.91 0.92 0.93 0.95 0.96 0.97 0.98 0.98 0.95 0.93 0.98 1.04 1.04 1.06 1.22 1.39 1.52 1.66 1.77 1.94 1.99 1.95 1.93 1.67 1.44 1.41 1.39 1.29 1.24 1.25
0.68 0.74 0.78 0.82 0.86 0.89 0.91 0.92 0.92 0.93 0.94 0.95 0.93 0.92 0.92 0.92 0.90 0.90 0.90 0.91 0.94 0.93 0.89 0.91 0.98 1.02 1.07 1.17 1.30 1.39 1.51 1.67 1.86 1.96 1.87 1.79 1.60 1.41 1.38 1.36 1.28 1.25 1.24
0.67 0.72 0.76 0.79 0.84 0.87 0.91 0.93 0.93 0.94 0.97 0.96 0.95 0.94 0.94 0.92 0.87 0.85 0.85 0.87 0.89 0.88 0.84 0.85 0.88 0.96 1.05 1.15 1.18 1.29 1.42 1.40 1.36 1.38 1.58 1.71 1.60 1.38 1.34 1.40 1.29 1.26 1.24